Indian Springs, NV

12:37 PM PDT on July 26, 2017 (GMT -0700)
Indian Springs Air Force Auxiliary

Weather History for KINS - November, 2012

Change the Weather History Date:

Monday, November 12, 2012

  Actual Average (KDRA) Record (KDRA)
Temperature  
Mean Temperature 40 °F -  
Max Temperature 55 °F 61 °F 79 °F (1999)
Min Temperature 25 °F 39 °F 27 °F (2000)
Degree Days  
Heating Degree Days 25    
Moisture  
Dew Point 10 °F    
Average Humidity 33    
Maximum Humidity 53    
Minimum Humidity 12    
Precipitation  
Precipitation 0.00 in - - ()
Sea Level Pressure  
Sea Level Pressure 30.34 in    
Wind  
Wind Speed 2 mph (WSW)    
Max Wind Speed 9 mph    
Max Gust Speed -    
Visibility 10 miles    
Events      
Averages and records for this station are not official NWS values.
T = Trace of Precipitation, MM = Missing Value Source: NWS Daily Summary

Daily Weather History Graph

Daily Weather History Graph

Search for Another Location

Airport or City:

Trip Planner

Search our weather history database for the weather conditions in past years. The results will help you decide how hot, cold, wet, or windy it might be!

Date:

Astronomy

Nov. 12, 2012 Rise Set
Actual Time 6:17 AM PST 4:35 PM PST
Civil Twilight 5:50 AM PST 5:02 PM PST
Nautical Twilight 5:19 AM PST 5:33 PM PST
Astronomical Twilight 4:48 AM PST 6:04 PM PST
Moon 4:49 AM PST (11/12) 3:43 PM PST (11/12)
Length of Visible Light 11h 12m
Length of Day
10h 17m
Waning Crescent, 2% of the Moon is Illuminated
Nov 12
Waning Crescent
Nov 13
New
Nov 20
First Quarter
Nov 28
Full
Dec 6
Last Quarter

Hourly Weather History & Observations

Time (PST) Temp. Windchill Dew Point Humidity Pressure Visibility Wind Dir Wind Speed Gust Speed Precip Events Conditions
12:58 AM 30.7 °F - 12.7 °F 47% 30.41 in 10.0 mi ESE 2.3 mph - N/A   Clear
1:58 AM 29.7 °F - 11.8 °F 48% 30.40 in 10.0 mi Calm Calm - N/A   Clear
2:58 AM 27.9 °F - 10.4 °F 48% 30.40 in 10.0 mi Variable 1.2 mph - N/A   Clear
3:58 AM 25.7 °F - 10.4 °F 52% 30.40 in 10.0 mi WSW 2.3 mph - N/A   Clear
4:58 AM 26.4 °F - 10.9 °F 52% 30.41 in 10.0 mi Calm Calm - N/A   Clear
5:58 AM 27.5 °F - 12.2 °F 53% 30.41 in 10.0 mi West 1.2 mph - N/A   Clear
6:58 AM 27.3 °F - 11.3 °F 51% 30.41 in 10.0 mi SSW 1.2 mph - N/A   Clear
7:58 AM 33.4 °F 30.4 °F 14.5 °F 46% 30.41 in 10.0 mi WNW 3.5 mph - N/A   Clear
8:58 AM 37.4 °F - 13.8 °F 38% 30.41 in 10.0 mi Calm Calm - N/A   Clear
9:58 AM 43.3 °F 41.7 °F 11.7 °F 28% 30.40 in 10.0 mi ENE 3.5 mph - N/A   Clear
10:58 AM 48.2 °F - 8.6 °F 20% 30.38 in 10.0 mi Calm Calm - N/A   Clear
11:58 AM 49.6 °F - 9.7 °F 20% 30.35 in 10.0 mi WNW 1.2 mph - N/A   Clear
12:58 PM 51.3 °F - 9.3 °F 19% 30.31 in 10.0 mi ENE 1.2 mph - N/A   Clear
1:58 PM 54.0 °F - 5.5 °F 14% 30.28 in 10.0 mi Calm Calm - N/A   Clear
2:58 PM 55.8 °F - 5.0 °F 13% 30.27 in 10.0 mi North 1.2 mph - N/A   Clear
3:58 PM 55.6 °F - 3.0 °F 12% 30.26 in 10.0 mi Calm Calm - N/A   Clear
4:58 PM 52.5 °F - 6.3 °F 15% 30.25 in 10.0 mi Calm Calm - N/A   Clear
5:58 PM 47.3 °F - 9.0 °F 21% 30.27 in 10.0 mi SW 2.3 mph - N/A   Clear
6:58 PM 44.8 °F 41.0 °F 11.3 °F 26% 30.28 in 10.0 mi WSW 6.9 mph - N/A   Clear
7:58 PM 40.1 °F - 12.2 °F 32% 30.28 in 10.0 mi Calm Calm - N/A   Clear
8:58 PM 37.4 °F 33.8 °F 11.5 °F 34% 30.29 in 10.0 mi WSW 4.6 mph - N/A   Clear
9:58 PM 35.2 °F 28.1 °F 11.7 °F 38% 30.29 in 10.0 mi West 9.2 mph - N/A   Clear
10:58 PM 33.6 °F 26.2 °F 10.6 °F 38% 30.31 in 10.0 mi WSW 9.2 mph - N/A   Clear
11:58 PM 34.7 °F 28.1 °F 11.1 °F 38% 30.30 in 10.0 mi WSW 8.1 mph - N/A   Clear